Weather History for Lovelock, NV

Change the Weather History Date:

Sunday, December 9, 2012

  Actual Average Record
Temperature  
Mean Temperature 32 °F -  
Max Temperature 45 °F 44 °F 63 °F (1981)
Min Temperature 19 °F 15 °F -16 °F (2013)
Degree Days  
Heating Degree Days 33    
Moisture  
Dew Point 20 °F    
Average Humidity 67    
Maximum Humidity 89    
Minimum Humidity 40    
Precipitation  
Precipitation 0.00 in - - ()
Sea Level Pressure  
Sea Level Pressure 30.38 in    
Wind  
Wind Speed 3 mph (East)    
Max Wind Speed 8 mph    
Max Gust Speed -    
Visibility 10 miles    
Events      
Averages and records for this station are not official NWS values.
T = Trace of Precipitation, MM = Missing Value Source: NWS Daily Summary

Daily Weather History Graph

Daily Weather History Graph

Search for Another Location

Airport:

Trip Planner

Search our weather history database for the weather conditions in past years. The results will help you decide how hot, cold, wet, or windy it might be!

Date:

Astronomy

Dec. 09, 2012 Rise Set
Actual Time 7:05 AM PST 4:28 PM PST
Civil Twilight 6:34 AM PST 4:59 PM PST
Nautical Twilight 6:00 AM PST 5:33 PM PST
Astronomical Twilight 5:27 AM PST 6:06 PM PST
Moon 2:43 AM PST (12/9) 1:38 PM PST (12/9)
Length of Visible Light 10h 24m
Length of Day
9h 23m
Waning Crescent, 17% of the Moon is Illuminated
Dec 9
Waning Crescent
Dec 13
New
Dec 19
First Quarter
Dec 28
Full
Jan 4
Last Quarter

Hourly Weather History & Observations

Time (PST) Temp. Windchill Dew Point Humidity Pressure Visibility Wind Dir Wind Speed Gust Speed Precip Events Conditions
12:53 AM 35.1 °F 29.3 °F 21.0 °F 57% 30.21 in 10.0 mi East 6.9 mph - N/A   Clear
1:53 AM 28.0 °F - 19.9 °F 72% 30.25 in 10.0 mi Calm Calm - N/A   Clear
2:53 AM 27.0 °F 23.0 °F 19.9 °F 75% 30.25 in 10.0 mi East 3.5 mph - N/A   Clear
3:53 AM 23.0 °F 18.4 °F 19.0 °F 85% 30.27 in 10.0 mi West 3.5 mph - N/A   Clear
4:53 AM 21.9 °F - 19.0 °F 89% 30.30 in 10.0 mi Calm Calm - N/A   Clear
5:53 AM 19.9 °F 13.4 °F 17.1 °F 89% 30.34 in 10.0 mi WSW 4.6 mph - N/A   Clear
6:53 AM 19.0 °F - 16.0 °F 88% 30.37 in 10.0 mi Calm Calm - N/A   Clear
7:53 AM 21.9 °F - 17.1 °F 82% 30.38 in 10.0 mi Calm Calm - N/A   Clear
8:53 AM 32.0 °F - 24.1 °F 73% 30.40 in 10.0 mi Calm Calm - N/A   Clear
9:53 AM 37.0 °F 33.3 °F 21.0 °F 52% 30.40 in 10.0 mi Variable 4.6 mph - N/A   Clear
10:53 AM 41.0 °F 35.8 °F 23.0 °F 49% 30.41 in 10.0 mi ENE 8.1 mph - N/A   Clear
11:53 AM 42.1 °F 39.2 °F 21.9 °F 45% 30.38 in 10.0 mi Variable 4.6 mph - N/A   Clear
12:53 PM 43.0 °F 41.3 °F 21.9 °F 43% 30.37 in 10.0 mi Variable 3.5 mph - N/A   Clear
1:53 PM 45.0 °F - 21.9 °F 40% 30.37 in 10.0 mi Calm Calm - N/A   Clear
2:53 PM 45.0 °F 42.6 °F 21.9 °F 40% 30.37 in 10.0 mi East 4.6 mph - N/A   Clear
3:53 PM 44.1 °F 42.5 °F 23.0 °F 43% 30.40 in 10.0 mi NE 3.5 mph - N/A   Clear
4:53 PM 37.9 °F 35.5 °F 24.1 °F 57% 30.41 in 10.0 mi NE 3.5 mph - N/A   Clear
6:53 PM 28.9 °F 21.9 °F 19.9 °F 69% 30.48 in 10.0 mi South 6.9 mph - N/A   Clear
7:53 PM 27.0 °F 23.0 °F 19.9 °F 75% 30.47 in 10.0 mi SSW 3.5 mph - N/A   Clear
8:53 PM 28.0 °F 22.8 °F 21.0 °F 75% 30.45 in 10.0 mi WNW 4.6 mph - N/A   Clear
9:53 PM 25.0 °F - 19.0 °F 78% 30.45 in 10.0 mi Calm Calm - N/A   Clear
10:53 PM 21.9 °F - 18.0 °F 85% 30.46 in 10.0 mi Calm Calm - N/A   Clear
11:53 PM 21.0 °F 13.4 °F 18.0 °F 88% 30.44 in 10.0 mi West 5.8 mph - N/A   Clear